Stündliche Wetter Abu Road

Heute, 17 Juni, Donnerstag

Zeit Temperatur Niederschläge Wind Luftdruck Luftfeuchtigkeit
00:00 +33°C° 0.5 mm 3 m/S 727 mmHg 61%
01:00 +31°C° 0.5 mm 2 m/S 727 mmHg 64%
02:00 +31°C° 0.5 mm 1 m/S 727 mmHg 67%
03:00 +31°C° 0.7 mm 2 m/S 727 mmHg 67%
04:00 +31°C° 0.7 mm 3 m/S 727 mmHg 67%
05:00 +31°C° 0.7 mm 3 m/S 727 mmHg 67%
06:00 +33°C° 0 mm 3 m/S 728 mmHg 65%
07:00 +33°C° 0 mm 3 m/S 728 mmHg 63%
08:00 +34°C° 0 mm 3 m/S 728 mmHg 60%
09:00 +35°C° 0 mm 3 m/S 728 mmHg 54%
10:00 +37°C° 0 mm 3 m/S 728 mmHg 48%
11:00 +38°C° 0 mm 3 m/S 728 mmHg 42%
12:00 +38°C° 0.3 mm 3 m/S 728 mmHg 40%
13:00 +38°C° 0.3 mm 3 m/S 727 mmHg 39%
14:00 +38°C° 0.3 mm 3 m/S 727 mmHg 37%
15:00 +39°C° 0 mm 3 m/S 727 mmHg 36%
16:00 +40°C° 0 mm 4 m/S 726 mmHg 34%
17:00 +41°C° 0 mm 4 m/S 726 mmHg 32%
18:00 +38°C° 0 mm 4 m/S 726 mmHg 36%
19:00 +37°C° 0 mm 4 m/S 727 mmHg 40%
20:00 +36°C° 0 mm 3 m/S 727 mmHg 44%
21:00 +35°C° 0.5 mm 3 m/S 728 mmHg 48%
22:00 +34°C° 0.5 mm 2 m/S 728 mmHg 52%
23:00 +33°C° 0.5 mm 1 m/S 729 mmHg 55%

Morgen, 18 Juni, Freitag

Zeit Temperatur Niederschläge Wind Luftdruck Luftfeuchtigkeit
00:00 +32°C° 1 mm 2 m/S 728 mmHg 58%
01:00 +32°C° 1 mm 2 m/S 728 mmHg 60%
02:00 +31°C° 1 mm 2 m/S 728 mmHg 62%
03:00 +31°C° 0.4 mm 2 m/S 728 mmHg 64%
04:00 +30°C° 0.4 mm 1 m/S 728 mmHg 65%
05:00 +30°C° 0.4 mm 1 m/S 728 mmHg 67%
06:00 +31°C° 0 mm 2 m/S 728 mmHg 63%
07:00 +32°C° 0 mm 2 m/S 729 mmHg 59%
08:00 +34°C° 0 mm 3 m/S 729 mmHg 55%
09:00 +35°C° 0 mm 3 m/S 729 mmHg 51%
10:00 +36°C° 0 mm 3 m/S 729 mmHg 47%
11:00 +37°C° 0 mm 4 m/S 729 mmHg 42%
12:00 +37°C° 0.1 mm 3 m/S 729 mmHg 42%
13:00 +37°C° 0.1 mm 3 m/S 728 mmHg 42%
14:00 +37°C° 0.1 mm 3 m/S 728 mmHg 42%
15:00 +37°C° 0 mm 3 m/S 728 mmHg 41%
16:00 +37°C° 0 mm 2 m/S 727 mmHg 40%
17:00 +37°C° 0 mm 2 m/S 727 mmHg 39%
18:00 +37°C° 0 mm 2 m/S 728 mmHg 42%
19:00 +36°C° 0 mm 2 m/S 728 mmHg 44%
20:00 +35°C° 0 mm 2 m/S 729 mmHg 47%
21:00 +34°C° 0.4 mm 3 m/S 729 mmHg 51%
22:00 +34°C° 0.4 mm 3 m/S 729 mmHg 54%
23:00 +33°C° 0.4 mm 4 m/S 730 mmHg 57%

übermorgen, 19 Juni, Samstag

Zeit Temperatur Niederschläge Wind Luftdruck Luftfeuchtigkeit
00:00 +33°C° 0.4 mm 3 m/S 729 mmHg 60%
01:00 +31°C° 0.4 mm 3 m/S 729 mmHg 63%
02:00 +30°C° 0.4 mm 2 m/S 728 mmHg 66%
03:00 +30°C° 0.4 mm 2 m/S 729 mmHg 67%
04:00 +30°C° 0.4 mm 2 m/S 729 mmHg 68%
05:00 +30°C° 0.4 mm 3 m/S 729 mmHg 69%
06:00 +30°C° 0.3 mm 3 m/S 729 mmHg 66%
07:00 +32°C° 0.3 mm 4 m/S 730 mmHg 63%
08:00 +33°C° 0.3 mm 4 m/S 730 mmHg 61%
09:00 +34°C° 0.5 mm 4 m/S 730 mmHg 57%
10:00 +35°C° 0.5 mm 4 m/S 730 mmHg 53%
11:00 +36°C° 0.5 mm 4 m/S 730 mmHg 49%
12:00 +36°C° 0.3 mm 4 m/S 730 mmHg 48%
13:00 +36°C° 0.3 mm 4 m/S 729 mmHg 47%
14:00 +36°C° 0.3 mm 4 m/S 729 mmHg 45%
15:00 +36°C° 0 mm 3 m/S 729 mmHg 45%
16:00 +36°C° 0 mm 3 m/S 728 mmHg 45%
17:00 +36°C° 0 mm 2 m/S 728 mmHg 44%
18:00 +35°C° 0 mm 2 m/S 728 mmHg 46%
19:00 +34°C° 0 mm 1 m/S 729 mmHg 48%
20:00 +33°C° 0 mm 1 m/S 729 mmHg 49%
21:00 +34°C° 0 mm 2 m/S 729 mmHg 51%
22:00 +32°C° 0 mm 2 m/S 729 mmHg 53%
23:00 +33°C° 0 mm 3 m/S 730 mmHg 55%

20 Juni, Sonntag

Zeit Temperatur Niederschläge Wind Luftdruck Luftfeuchtigkeit
00:00 +31°C° 0.1 mm 3 m/S 729 mmHg 59%
01:00 +31°C° 0.1 mm 3 m/S 729 mmHg 62%
02:00 +30°C° 0.1 mm 2 m/S 729 mmHg 66%
03:00 +30°C° 0.4 mm 3 m/S 729 mmHg 68%
04:00 +30°C° 0.4 mm 3 m/S 729 mmHg 70%
05:00 +29°C° 0.4 mm 3 m/S 729 mmHg 72%
06:00 +30°C° 0 mm 4 m/S 730 mmHg 68%
07:00 +32°C° 0 mm 4 m/S 730 mmHg 64%
08:00 +32°C° 0 mm 5 m/S 731 mmHg 61%
09:00 +34°C° 0 mm 5 m/S 730 mmHg 55%
10:00 +35°C° 0 mm 5 m/S 730 mmHg 50%
11:00 +36°C° 0 mm 5 m/S 730 mmHg 45%
12:00 +37°C° 0 mm 5 m/S 730 mmHg 43%
13:00 +37°C° 0 mm 5 m/S 729 mmHg 41%
14:00 +37°C° 0 mm 5 m/S 729 mmHg 40%
15:00 +39°C° 0 mm 5 m/S 729 mmHg 36%
16:00 +39°C° 0 mm 5 m/S 728 mmHg 33%
17:00 +39°C° 0 mm 5 m/S 728 mmHg 30%
18:00 +38°C° 0 mm 4 m/S 728 mmHg 32%
19:00 +37°C° 0 mm 3 m/S 729 mmHg 34%
20:00 +36°C° 0 mm 3 m/S 729 mmHg 37%
21:00 +35°C° 0 mm 3 m/S 729 mmHg 42%
22:00 +34°C° 0 mm 3 m/S 730 mmHg 47%
23:00 +34°C° 0 mm 4 m/S 730 mmHg 52%

21 Juni, Montag

Zeit Temperatur Niederschläge Wind Luftdruck Luftfeuchtigkeit
00:00 +33°C° 0 mm 4 m/S 730 mmHg 55%
01:00 +32°C° 0 mm 5 m/S 730 mmHg 59%
02:00 +32°C° 0 mm 5 m/S 729 mmHg 62%
03:00 +30°C° 0.1 mm 4 m/S 729 mmHg 65%
04:00 +30°C° 0.1 mm 4 m/S 730 mmHg 69%
05:00 +29°C° 0.1 mm 3 m/S 730 mmHg 72%
06:00 +30°C° 0.1 mm 4 m/S 730 mmHg 69%
07:00 +30°C° 0.1 mm 4 m/S 730 mmHg 66%
08:00 +32°C° 0.1 mm 4 m/S 731 mmHg 63%
09:00 +33°C° 0 mm 4 m/S 731 mmHg 57%
10:00 +35°C° 0 mm 4 m/S 731 mmHg 52%
11:00 +36°C° 0 mm 5 m/S 731 mmHg 46%
12:00 +37°C° 0 mm 5 m/S 730 mmHg 44%
13:00 +37°C° 0 mm 5 m/S 730 mmHg 41%
14:00 +39°C° 0 mm 5 m/S 729 mmHg 39%
15:00 +39°C° 0 mm 5 m/S 729 mmHg 39%
16:00 +37°C° 0 mm 4 m/S 729 mmHg 39%
17:00 +37°C° 0 mm 4 m/S 729 mmHg 40%
18:00 +36°C° 0 mm 4 m/S 729 mmHg 42%
19:00 +36°C° 0 mm 3 m/S 729 mmHg 43%
20:00 +35°C° 0 mm 3 m/S 729 mmHg 45%
21:00 +35°C° 0 mm 3 m/S 730 mmHg 48%
22:00 +34°C° 0 mm 3 m/S 730 mmHg 51%
23:00 +33°C° 0 mm 3 m/S 730 mmHg 55%

22 Juni, Dienstag

Zeit Temperatur Niederschläge Wind Luftdruck Luftfeuchtigkeit
00:00 +33°C° 0.3 mm 3 m/S 730 mmHg 59%
01:00 +31°C° 0.3 mm 3 m/S 730 mmHg 64%
02:00 +30°C° 0.3 mm 3 m/S 729 mmHg 68%
03:00 +30°C° 1.5 mm 3 m/S 729 mmHg 70%
04:00 +29°C° 1.5 mm 3 m/S 730 mmHg 72%
05:00 +29°C° 1.5 mm 3 m/S 730 mmHg 73%
06:00 +30°C° 0.9 mm 3 m/S 730 mmHg 70%
07:00 +32°C° 0.9 mm 4 m/S 731 mmHg 67%
08:00 +32°C° 0.9 mm 4 m/S 731 mmHg 63%
09:00 +34°C° 0.1 mm 4 m/S 731 mmHg 58%
10:00 +35°C° 0.1 mm 4 m/S 731 mmHg 52%
11:00 +36°C° 0.1 mm 5 m/S 731 mmHg 46%
12:00 +37°C° 0 mm 5 m/S 730 mmHg 42%
13:00 +39°C° 0 mm 5 m/S 730 mmHg 39%
14:00 +40°C° 0 mm 5 m/S 729 mmHg 35%
15:00 +40°C° 0 mm 4 m/S 729 mmHg 34%
16:00 +40°C° 0 mm 4 m/S 729 mmHg 34%
17:00 +40°C° 0 mm 4 m/S 729 mmHg 33%
18:00 +38°C° 0 mm 4 m/S 729 mmHg 36%
19:00 +37°C° 0 mm 4 m/S 730 mmHg 39%
20:00 +36°C° 0 mm 3 m/S 730 mmHg 43%
21:00 +36°C° 0 mm 3 m/S 730 mmHg 46%
22:00 +35°C° 0 mm 3 m/S 730 mmHg 50%
23:00 +34°C° 0 mm 3 m/S 730 mmHg 53%
Mehr zeigen

Wir brauchen deine Erlaubnis

Meteoprog und unser Service Anbieter werden persönliche Daten aufbewahren, so wie Cookies, Geräte Bezeichnung oder ähnliche Technologien von deinem Gerät und Prozess, so wie Persönliche Daten Inhalte und Werbungen, genauso wie social Media und den Verkehr zu analysieren.

  • Aufbewahrung und/oder Zugang zu deiner Geräte Informationen.

    Cookies, Geräte Bezeichnung oder andere Informationen, können aufbewahrt oder Zugang zu deinem Gerät erhalten, für den Grund, der oben angegeben wird.

  • Personalisierte Werbung und Inhalte, Messungen, Einblick in das Publikum und Produkt Entwicklung.

    Werbungen und Inhalte können personalisiert werden, basierend auf ein Profil. Mehr Daten können besser personalisierte Werbungen und Inhalte hinzufügen. Werbung und Inhalte können gezeigt und gemessen werden. Einblicke über das Publikum, welche die Werbung gesehen haben und den Inhalt, können abgeleitet werden. So wie Daten können genutzt werden, um es zu verbessern oder die Benutzer Erfahrung zu verbessern das System und die Software.

Wenn du “Ich stimme zu” klickst, erlaubst du uns, die Cookies zu benutzen die Geräte Bezeichnung, den Web oder ähnliche Technologien zu benutzen. Deine Settings, können in deinem Gerät bei deinem Browser geändert werden.

Für den bestimmten Zweck, berechtigten Interessen beruhen darauf, mehr als auf den Inhalt. Du kannst mehr darüber in unseren Privaten und Cookie Politik lesen.